| time (UTC) | temp C | wind direction | speed KPH | gust KPH | rain 1hr cm | rain 24hr cm | rain mn cm | humidity % | barometer mb |
| 20260905234516 | 27 | 0.0 | 1.6 | 0.00 | 0.00 | 0.00 | 87 | 1014.6 | |
| 20260905233517 | 27 | 0.0 | 3.2 | 0.00 | 0.00 | 0.00 | 86 | 1014.6 | |
| 20260905232516 | 27 | 68 | 1.6 | 4.8 | 0.00 | 0.00 | 0.00 | 85 | 1014.7 |
| 20260905231516 | 27 | 68 | 1.6 | 4.8 | 0.00 | 0.00 | 0.00 | 85 | 1014.7 |
| 20260905230517 | 27 | 68 | 3.2 | 9.7 | 0.00 | 0.00 | 0.00 | 84 | 1014.6 |
| 20260905225517 | 27 | 68 | 1.6 | 3.2 | 0.00 | 0.00 | 0.00 | 85 | 1014.7 |
| 20260905224516 | 27 | 45 | 1.6 | 4.8 | 0.00 | 0.00 | 0.00 | 85 | 1014.5 |
| 20260905223557 | 27 | 45 | 1.6 | 6.4 | 0.00 | 0.00 | 0.00 | 84 | 1014.4 |
| 20260905222517 | 27 | 68 | 3.2 | 9.7 | 0.00 | 0.00 | 0.00 | 83 | 1014.5 |
| 20260905221517 | 27 | 68 | 4.8 | 9.7 | 0.00 | 0.00 | 0.00 | 84 | 1014.5 |
| 20260905220517 | 27 | 68 | 3.2 | 8.0 | 0.00 | 0.00 | 0.00 | 84 | 1014.4 |
| 20260905215519 | 27 | 68 | 3.2 | 4.8 | 0.00 | 0.00 | 0.00 | 85 | 1014.4 |
| 20260905214536 | 27 | 68 | 3.2 | 11.3 | 0.00 | 0.00 | 0.00 | 83 | 1014.2 |
| 20260905213516 | 27 | 68 | 4.8 | 8.0 | 0.00 | 0.00 | 0.00 | 82 | 1014.0 |
| 20260905212516 | 27 | 68 | 4.8 | 11.3 | 0.00 | 0.00 | 0.00 | 82 | 1014.1 |
| 20260905211516 | 27 | 68 | 3.2 | 6.4 | 0.00 | 0.00 | 0.00 | 83 | 1014.1 |
| 20260905210516 | 27 | 68 | 3.2 | 6.4 | 0.00 | 0.00 | 0.00 | 84 | 1014.1 |
| 20260905205516 | 27 | 45 | 3.2 | 4.8 | 0.00 | 0.00 | 0.00 | 82 | 1014.3 |
| 20260905204537 | 27 | 45 | 3.2 | 6.4 | 0.00 | 0.00 | 0.00 | 81 | 1014.5 |
| 20260905203517 | 27 | 68 | 3.2 | 8.0 | 0.00 | 0.00 | 0.00 | 79 | 1014.5 |
| 20260905202516 | 27 | 45 | 1.6 | 4.8 | 0.00 | 0.00 | 0.00 | 81 | 1014.5 |
| 20260905201517 | 27 | 68 | 3.2 | 8.0 | 0.00 | 0.00 | 0.00 | 81 | 1014.5 |
| 20260905200517 | 27 | 45 | 3.2 | 6.4 | 0.00 | 0.00 | 0.00 | 82 | 1014.6 |
| 20260905195516 | 27 | 45 | 3.2 | 11.3 | 0.00 | 0.00 | 0.00 | 83 | 1014.6 |
| 20260905194516 | 27 | 45 | 3.2 | 9.7 | 0.00 | 0.00 | 0.00 | 82 | 1014.5 |
| 20260905193537 | 26 | 45 | 4.8 | 9.7 | 0.00 | 0.00 | 0.00 | 82 | 1014.3 |
| 20260905192516 | 27 | 45 | 6.4 | 14.5 | 0.00 | 0.00 | 0.00 | 82 | 1014.4 |
| 20260905191516 | 26 | 45 | 4.8 | 8.0 | 0.00 | 0.00 | 0.00 | 82 | 1014.6 |
| 20260905190516 | 26 | 45 | 4.8 | 9.7 | 0.00 | 0.00 | 0.00 | 83 | 1014.8 |
| 20260905185517 | 26 | 23 | 4.8 | 12.9 | 0.00 | 0.00 | 0.00 | 84 | 1014.7 |
| 20260905184537 | 26 | 45 | 3.2 | 11.3 | 0.00 | 0.00 | 0.00 | 85 | 1014.6 |
| 20260905183517 | 26 | 45 | 4.8 | 9.7 | 0.00 | 0.00 | 0.00 | 84 | 1014.7 |
| 20260905182536 | 25 | 45 | 6.4 | 11.3 | 0.00 | 0.00 | 0.00 | 85 | 1014.4 |
| 20260905181516 | 25 | 45 | 4.8 | 8.0 | 0.00 | 0.00 | 0.00 | 85 | 1014.7 |
| 20260905180516 | 25 | 45 | 3.2 | 8.0 | 0.00 | 0.00 | 0.00 | 86 | 1014.6 |
| 20260905175516 | 25 | 45 | 6.4 | 17.7 | 0.00 | 0.00 | 0.00 | 86 | 1014.7 |
| 20260905174516 | 25 | 45 | 4.8 | 11.3 | 0.00 | 0.00 | 0.00 | 87 | 1015.0 |
| 20260905173516 | 25 | 45 | 3.2 | 9.7 | 0.00 | 0.00 | 0.00 | 86 | 1015.1 |
| 20260905172516 | 24 | 45 | 6.4 | 14.5 | 0.00 | 0.00 | 0.00 | 89 | 1015.3 |
| 20260905171536 | 24 | 45 | 1.6 | 4.8 | 0.00 | 0.00 | 0.00 | 90 | 1015.6 |
| 20260905170536 | 23 | 45 | 3.2 | 8.0 | 0.00 | 0.00 | 0.00 | 91 | 1015.6 |
| 20260905165516 | 23 | 45 | 4.8 | 12.9 | 0.00 | 0.00 | 0.00 | 91 | 1015.8 |
| 20260905164516 | 23 | 68 | 3.2 | 8.0 | 0.00 | 0.00 | 0.00 | 92 | 1015.9 |
| 20260905163516 | 23 | 45 | 3.2 | 8.0 | 0.00 | 0.00 | 0.00 | 92 | 1015.9 |
| 20260905162536 | 22 | 45 | 1.6 | 4.8 | 0.00 | 0.00 | 0.00 | 93 | 1016.2 |
| 20260905161536 | 22 | 45 | 1.6 | 4.8 | 0.00 | 0.00 | 0.00 | 94 | 1016.2 |
| 20260905160516 | 22 | 45 | 1.6 | 4.8 | 0.00 | 0.00 | 0.00 | 94 | 1016.4 |
| 20260905155536 | 22 | 45 | 1.6 | 4.8 | 0.00 | 0.00 | 0.00 | 94 | 1016.7 |
| 20260905154516 | 22 | 0.0 | 0.0 | 0.00 | 0.00 | 0.00 | 94 | 1016.8 | |
| 20260905153517 | 22 | 0.0 | 0.0 | 0.00 | 0.00 | 0.00 | 94 | 1016.8 | |
| 20260905152518 | 21 | 90 | 1.6 | 4.8 | 0.00 | 0.00 | 0.00 | 94 | 1016.6 |
| 20260905151516 | 21 | 90 | 3.2 | 6.4 | 0.00 | 0.00 | 0.00 | 94 | 1016.7 |
| 20260905150556 | 21 | 90 | 4.8 | 9.7 | 0.00 | 0.00 | 0.00 | 95 | 1016.8 |
| 20260905145516 | 21 | 113 | 1.6 | 6.4 | 0.00 | 0.00 | 0.00 | 95 | 1016.7 |
| 20260905144516 | 21 | 113 | 3.2 | 6.4 | 0.00 | 0.00 | 0.00 | 95 | 1016.9 |
| 20260905143516 | 21 | 0.0 | 0.0 | 0.00 | 0.00 | 0.00 | 95 | 1016.4 | |
| 20260905142516 | 21 | 0.0 | 0.0 | 0.00 | 0.00 | 0.00 | 95 | 1016.4 | |
| 20260905141516 | 21 | 0.0 | 0.0 | 0.00 | 0.00 | 0.00 | 95 | 1016.4 | |
| 20260905140516 | 21 | 0.0 | 0.0 | 0.00 | 0.00 | 0.00 | 95 | 1016.1 | |
| 20260905135516 | 21 | 0.0 | 1.6 | 0.00 | 0.00 | 0.00 | 95 | 1016.0 | |
| 20260905134517 | 20 | 0.0 | 3.2 | 0.00 | 0.00 | 0.00 | 95 | 1016.0 | |
| 20260905133516 | 20 | 0.0 | 0.0 | 0.00 | 0.00 | 0.00 | 95 | 1015.6 | |
| 20260905132536 | 20 | 45 | 1.6 | 4.8 | 0.00 | 0.00 | 0.00 | 95 | 1015.5 |
| 20260905131536 | 20 | 0.0 | 0.0 | 0.00 | 0.00 | 0.00 | 95 | 1015.5 | |
| 20260905130516 | 20 | 0.0 | 0.0 | 0.00 | 0.00 | 0.00 | 95 | 1015.6 | |
| 20260905125536 | 20 | 0.0 | 0.0 | 0.00 | 0.00 | 0.00 | 95 | 1015.4 | |
| 20260905124516 | 20 | 0.0 | 0.0 | 0.00 | 0.00 | 0.00 | 95 | 1015.6 | |
| 20260905123516 | 20 | 0.0 | 0.0 | 0.00 | 0.00 | 0.00 | 95 | 1015.3 | |
| 20260905122516 | 20 | 0.0 | 0.0 | 0.00 | 0.00 | 0.00 | 95 | 1015.3 | |
| 20260905121516 | 20 | 0.0 | 0.0 | 0.00 | 0.00 | 0.00 | 95 | 1015.1 | |
| 20260905120536 | 20 | 0.0 | 0.0 | 0.00 | 0.00 | 0.00 | 95 | 1014.8 | |
| 20260905115516 | 20 | 0.0 | 0.0 | 0.00 | 0.00 | 0.00 | 95 | 1014.5 | |
| 20260905114516 | 20 | 0.0 | 0.0 | 0.00 | 0.00 | 0.00 | 95 | 1014.8 | |
| 20260905113516 | 20 | 0.0 | 0.0 | 0.00 | 0.00 | 0.00 | 95 | 1014.6 | |
| 20260905112516 | 20 | 0.0 | 0.0 | 0.00 | 0.00 | 0.00 | 95 | 1014.4 | |
| 20260905111516 | 20 | 45 | 1.6 | 3.2 | 0.00 | 0.00 | 0.00 | 95 | 1014.3 |
| 20260905110516 | 20 | 0.0 | 3.2 | 0.00 | 0.00 | 0.00 | 95 | 1014.7 | |
| 20260905105516 | 20 | 0.0 | 0.0 | 0.00 | 0.00 | 0.00 | 95 | 1014.6 | |
| 20260905104516 | 20 | 0.0 | 4.8 | 0.00 | 0.00 | 0.00 | 95 | 1014.1 | |
| 20260905103516 | 20 | 45 | 1.6 | 3.2 | 0.00 | 0.00 | 0.00 | 95 | 1013.9 |
| 20260905102516 | 21 | 45 | 1.6 | 4.8 | 0.00 | 0.00 | 0.00 | 95 | 1014.1 |
| 20260905101516 | 21 | 0.0 | 0.0 | 0.00 | 0.00 | 0.00 | 95 | 1014.0 | |
| 20260905100536 | 21 | 0.0 | 0.0 | 0.00 | 0.00 | 0.00 | 95 | 1014.0 | |
| 20260905095516 | 21 | 0.0 | 0.0 | 0.00 | 0.00 | 0.00 | 95 | 1013.9 | |
| 20260905094515 | 21 | 0.0 | 0.0 | 0.00 | 0.00 | 0.00 | 95 | 1014.1 | |
| 20260905093515 | 21 | 0.0 | 0.0 | 0.00 | 0.00 | 0.00 | 94 | 1014.3 | |
| 20260905092515 | 21 | 0.0 | 0.0 | 0.00 | 0.00 | 0.00 | 94 | 1014.3 | |
| 20260905091536 | 21 | 0.0 | 1.6 | 0.00 | 0.00 | 0.00 | 94 | 1013.8 | |
| 20260905090516 | 21 | 0.0 | 3.2 | 0.00 | 0.00 | 0.00 | 94 | 1013.6 | |
| 20260905085535 | 21 | 45 | 3.2 | 8.0 | 0.00 | 0.00 | 0.00 | 94 | 1013.5 |
| 20260905084536 | 21 | 45 | 3.2 | 6.4 | 0.00 | 0.00 | 0.00 | 93 | 1013.6 |
| 20260905083515 | 21 | 45 | 1.6 | 4.8 | 0.00 | 0.00 | 0.00 | 93 | 1014.0 |
| 20260905082538 | 21 | 45 | 1.6 | 6.4 | 0.00 | 0.00 | 0.00 | 93 | 1014.0 |
| 20260905081517 | 21 | 45 | 3.2 | 6.4 | 0.00 | 0.00 | 0.00 | 92 | 1014.1 |
| 20260905080517 | 21 | 45 | 3.2 | 6.4 | 0.00 | 0.00 | 0.00 | 92 | 1014.1 |
| 20260905075517 | 21 | 45 | 3.2 | 6.4 | 0.00 | 0.00 | 0.00 | 92 | 1014.3 |
| 20260905074517 | 22 | 45 | 1.6 | 4.8 | 0.00 | 0.00 | 0.00 | 92 | 1014.4 |
| 20260905073539 | 22 | 45 | 1.6 | 4.8 | 0.00 | 0.00 | 0.00 | 92 | 1014.1 |
| 20260905072517 | 22 | 45 | 1.6 | 4.8 | 0.00 | 0.00 | 0.00 | 92 | 1014.3 |
| 20260905071517 | 22 | 45 | 3.2 | 4.8 | 0.00 | 0.00 | 0.00 | 92 | 1014.1 |
| 20260905070516 | 22 | 45 | 3.2 | 4.8 | 0.00 | 0.00 | 0.00 | 91 | 1014.1 |
| 20260905065516 | 22 | 45 | 1.6 | 6.4 | 0.00 | 0.00 | 0.00 | 91 | 1014.2 |
| 20260905064517 | 22 | 68 | 1.6 | 4.8 | 0.00 | 0.00 | 0.00 | 91 | 1014.3 |
| 20260905063516 | 23 | 68 | 1.6 | 6.4 | 0.00 | 0.00 | 0.00 | 90 | 1014.2 |
| 20260905062516 | 23 | 45 | 1.6 | 6.4 | 0.00 | 0.00 | 0.00 | 91 | 1014.1 |
| 20260905061536 | 23 | 23 | 1.6 | 3.2 | 0.00 | 0.00 | 0.00 | 91 | 1014.1 |
| 20260905060517 | 23 | 45 | 1.6 | 3.2 | 0.00 | 0.00 | 0.00 | 91 | 1014.0 |
| 20260905055516 | 23 | 45 | 1.6 | 4.8 | 0.00 | 0.00 | 0.00 | 91 | 1013.9 |
| 20260905054537 | 23 | 0.0 | 0.0 | 0.00 | 0.00 | 0.00 | 91 | 1014.0 | |
| 20260905053517 | 23 | 45 | 1.6 | 4.8 | 0.00 | 0.00 | 0.00 | 91 | 1013.7 |
| 20260905052516 | 23 | 45 | 1.6 | 3.2 | 0.00 | 0.00 | 0.00 | 91 | 1013.8 |
| 20260905051516 | 23 | 0.0 | 0.0 | 0.00 | 0.00 | 0.00 | 90 | 1013.6 | |
| 20260905050516 | 23 | 0.0 | 0.0 | 0.00 | 0.00 | 0.00 | 90 | 1013.6 | |
| 20260905045537 | 23 | 45 | 1.6 | 4.8 | 0.00 | 0.00 | 0.00 | 90 | 1013.5 |
| 20260905044517 | 24 | 45 | 1.6 | 4.8 | 0.00 | 0.00 | 0.00 | 90 | 1013.5 |
| 20260905043517 | 24 | 0.0 | 0.0 | 0.00 | 0.00 | 0.00 | 90 | 1013.7 | |
| 20260905042517 | 24 | 45 | 1.6 | 3.2 | 0.00 | 0.00 | 0.00 | 90 | 1013.7 |
| 20260905041516 | 24 | 0.0 | 0.0 | 0.00 | 0.00 | 0.00 | 90 | 1013.8 | |
| 20260905040517 | 24 | 45 | 1.6 | 4.8 | 0.00 | 0.00 | 0.00 | 90 | 1013.8 |
| 20260905035517 | 24 | 45 | 1.6 | 3.2 | 0.00 | 0.00 | 0.00 | 90 | 1013.6 |
| 20260905034517 | 24 | 45 | 1.6 | 4.8 | 0.00 | 0.00 | 0.00 | 89 | 1013.7 |
| 20260905033517 | 24 | 45 | 1.6 | 6.4 | 0.00 | 0.00 | 0.00 | 89 | 1013.4 |
| 20260905032516 | 25 | 45 | 1.6 | 6.4 | 0.00 | 0.00 | 0.00 | 89 | 1013.6 |
| 20260905031557 | 25 | 45 | 3.2 | 6.4 | 0.00 | 0.00 | 0.00 | 89 | 1013.5 |
| 20260905030516 | 25 | 45 | 3.2 | 6.4 | 0.00 | 0.00 | 0.00 | 89 | 1013.3 |
| 20260905025516 | 25 | 45 | 3.2 | 6.4 | 0.00 | 0.00 | 0.00 | 89 | 1013.2 |
| 20260905024516 | 25 | 45 | 3.2 | 4.8 | 0.00 | 0.00 | 0.00 | 88 | 1013.1 |
| 20260905023517 | 25 | 45 | 1.6 | 6.4 | 0.00 | 0.00 | 0.00 | 88 | 1012.9 |
| 20260905022517 | 25 | 45 | 3.2 | 6.4 | 0.00 | 0.00 | 0.00 | 87 | 1012.8 |
| 20260905021538 | 26 | 45 | 3.2 | 8.0 | 0.00 | 0.00 | 0.00 | 87 | 1012.9 |
| 20260905020517 | 26 | 23 | 1.6 | 6.4 | 0.00 | 0.00 | 0.00 | 87 | 1012.7 |
| 20260905015516 | 26 | 45 | 3.2 | 6.4 | 0.00 | 0.00 | 0.00 | 87 | 1012.4 |
| 20260905014516 | 26 | 23 | 3.2 | 8.0 | 0.00 | 0.00 | 0.00 | 87 | 1012.4 |
| 20260905013516 | 26 | 23 | 3.2 | 6.4 | 0.00 | 0.00 | 0.00 | 87 | 1012.3 |
| 20260905012536 | 26 | 45 | 1.6 | 8.0 | 0.00 | 0.00 | 0.00 | 87 | 1012.3 |
| 20260905011536 | 27 | 23 | 1.6 | 6.4 | 0.00 | 0.00 | 0.00 | 87 | 1012.3 |
| 20260905010516 | 27 | 0.0 | 4.8 | 0.00 | 0.00 | 0.00 | 87 | 1012.1 | |
| 20260905005516 | 27 | 23 | 1.6 | 4.8 | 0.00 | 0.00 | 0.00 | 87 | 1012.1 |
| 20260905004536 | 28 | 23 | 1.6 | 3.2 | 0.00 | 0.00 | 0.00 | 86 | 1012.1 |
| 20260905003536 | 28 | 23 | 1.6 | 4.8 | 0.00 | 0.00 | 0.00 | 85 | 1012.2 |
| 20260905002516 | 28 | 23 | 3.2 | 9.7 | 0.00 | 0.00 | 0.00 | 84 | 1012.1 |
| 20260905001517 | 28 | 0 | 1.6 | 4.8 | 0.00 | 0.00 | 0.00 | 84 | 1012.1 |
| 20260905000536 | 29 | 45 | 1.6 | 4.8 | 0.00 | 0.00 | 0.00 | 83 | 1012.1 |
| 20260904235516 | 29 | 23 | 4.8 | 9.7 | 0.00 | 0.00 | 0.00 | 82 | 1012.0 |